Weather History for Crystal River, FL

Change the Weather History Date:

Monday, December 31, 2012

  Actual Average (KBKV) Record (KBKV)
Temperature  
Mean Temperature 54 °F -  
Max Temperature 71 °F 66 °F 81 °F (2006)
Min Temperature 37 °F 42 °F 21 °F (2000)
Degree Days  
Heating Degree Days 11    
Growing Degree Days 4 (Base 50)    
Moisture  
Dew Point 45 °F    
Average Humidity 80    
Maximum Humidity 100    
Minimum Humidity 50    
Precipitation  
Precipitation 0.00 in - - ()
Sea Level Pressure  
Sea Level Pressure 30.30 in    
Wind  
Wind Speed 1 mph (ESE)    
Max Wind Speed 10 mph    
Max Gust Speed -    
Visibility 10 miles    
Events      
Averages and records for this station are not official NWS values.
T = Trace of Precipitation, MM = Missing Value Source: NWS Daily Summary

Daily Weather History Graph

Daily Weather History Graph

Search for Another Location

Airport:

Trip Planner

Search our weather history database for the weather conditions in past years. The results will help you decide how hot, cold, wet, or windy it might be!

Date:

Astronomy

Dec. 31, 2012 Rise Set
Actual Time 7:23 AM EST 5:43 PM EST
Civil Twilight 6:57 AM EST 6:09 PM EST
Nautical Twilight 6:28 AM EST 6:39 PM EST
Astronomical Twilight 5:59 AM EST 7:08 PM EST
Moon 8:55 PM EST (12/31) 9:19 AM EST (12/31)
Length of Visible Light 11h 12m
Length of Day
10h 20m
Waning Gibbous, 90% of the Moon is Illuminated
Dec 31
Waning Gibbous
Jan 4
Last Quarter
Jan 11
New
Jan 18
First Quarter
Jan 26
Full

Hourly Weather History & Observations

Time (EST) Temp. Windchill Dew Point Humidity Pressure Visibility Wind Dir Wind Speed Gust Speed Precip Events Conditions
12:15 AM 37.4 °F - 35.6 °F 93% 30.37 in 10.0 mi Calm Calm - N/A   Clear
12:35 AM 37.4 °F - 35.6 °F 93% 30.36 in 10.0 mi Calm Calm - N/A   Clear
12:55 AM 37.4 °F - 35.6 °F 93% 30.36 in 10.0 mi Calm Calm - N/A   Clear
1:15 AM 37.4 °F - 35.6 °F 93% 30.35 in 10.0 mi Calm Calm - N/A   Clear
1:35 AM 37.4 °F - 35.6 °F 93% 30.36 in 10.0 mi Calm Calm - N/A   Clear
1:55 AM 37.4 °F - 35.6 °F 93% 30.35 in 10.0 mi Calm Calm - N/A   Clear
2:15 AM 37.4 °F - 35.6 °F 93% 30.34 in 10.0 mi Calm Calm - N/A   Clear
2:35 AM 37.4 °F - 35.6 °F 93% 30.34 in 10.0 mi Calm Calm - N/A   Clear
2:55 AM 37.4 °F - 35.6 °F 93% 30.35 in 10.0 mi Calm Calm - N/A   Clear
3:15 AM 37.4 °F - 35.6 °F 93% 30.35 in 10.0 mi Calm Calm - N/A   Clear
3:35 AM 37.4 °F - 35.6 °F 93% 30.35 in 10.0 mi Calm Calm - N/A   Clear
3:55 AM 37.4 °F - 35.6 °F 93% 30.35 in 10.0 mi Calm Calm - N/A   Clear
4:15 AM 37.4 °F - 35.6 °F 93% 30.34 in 10.0 mi Calm Calm - N/A   Clear
4:35 AM 37.4 °F - 35.6 °F 93% 30.33 in 10.0 mi Calm Calm - N/A   Clear
4:55 AM 37.4 °F - 35.6 °F 93% 30.33 in 10.0 mi Calm Calm - N/A   Clear
5:15 AM 37.4 °F - 37.4 °F 100% 30.33 in 10.0 mi Calm Calm - N/A   Clear
5:35 AM 37.4 °F - 35.6 °F 93% 30.34 in 10.0 mi Calm Calm - N/A   Clear
5:55 AM 39.2 °F - 37.4 °F 93% 30.34 in 10.0 mi Calm Calm - N/A   Clear
6:15 AM 39.2 °F - 37.4 °F 93% 30.34 in 10.0 mi Calm Calm - N/A   Clear
6:35 AM 41.0 °F - 37.4 °F 87% 30.34 in 10.0 mi Calm Calm - N/A   Clear
6:55 AM 41.0 °F 39.0 °F 37.4 °F 87% 30.34 in 10.0 mi ENE 3.5 mph - N/A   Clear
7:15 AM 41.0 °F - 39.2 °F 93% 30.34 in 10.0 mi Calm Calm - N/A   Clear
7:55 AM 41.0 °F - 39.2 °F 93% 30.35 in 10.0 mi Calm Calm - N/A   Clear
8:15 AM 42.8 °F - 41.0 °F 93% 30.35 in 10.0 mi Calm Calm - N/A   Clear
8:35 AM 44.6 °F 43.1 °F 42.8 °F 93% 30.35 in 10.0 mi ENE 3.5 mph - N/A   Clear
8:55 AM 46.4 °F 45.2 °F 42.8 °F 87% 30.37 in 10.0 mi ENE 3.5 mph - N/A   Clear
9:15 AM 50.0 °F - 44.6 °F 82% 30.35 in 10.0 mi ENE 5.8 mph - N/A   Clear
9:35 AM 51.8 °F - 44.6 °F 76% 30.37 in 10.0 mi NE 3.5 mph - N/A   Clear
9:55 AM 53.6 °F - 46.4 °F 77% 30.39 in 10.0 mi North 3.5 mph - N/A   Clear
10:15 AM 57.2 °F - 46.4 °F 67% 30.40 in 10.0 mi ENE 4.6 mph - N/A   Clear
10:35 AM 59.0 °F - 48.2 °F 67% 30.38 in 10.0 mi East 4.6 mph - N/A   Clear
10:55 AM 62.6 °F - 48.2 °F 59% 30.33 in 10.0 mi ESE 5.8 mph - N/A   Clear
11:15 AM 64.4 °F - 50.0 °F 59% 30.35 in 10.0 mi East 8.1 mph - N/A   Clear
11:35 AM 66.2 °F - 50.0 °F 56% 30.34 in 10.0 mi East 6.9 mph - N/A   Clear
11:55 AM 68.0 °F - 51.8 °F 56% 30.32 in 10.0 mi East 8.1 mph - N/A   Clear
12:15 PM 69.8 °F - 51.8 °F 53% 30.31 in 10.0 mi ESE 3.5 mph - N/A   Clear
12:35 PM 69.8 °F - 51.8 °F 53% 30.30 in 10.0 mi ESE 6.9 mph - N/A   Clear
12:55 PM 69.8 °F - 51.8 °F 53% 30.28 in 10.0 mi SE 4.6 mph - N/A   Clear
1:15 PM 69.8 °F - 51.8 °F 53% 30.26 in 10.0 mi SE 10.4 mph - N/A   Clear
1:35 PM 71.6 °F - 51.8 °F 50% 30.25 in 10.0 mi SE 5.8 mph - N/A   Clear
1:55 PM 71.6 °F - 51.8 °F 50% 30.24 in 10.0 mi SSE 3.5 mph - N/A   Clear
2:15 PM 71.6 °F - 51.8 °F 50% 30.23 in 10.0 mi SE 4.6 mph - N/A   Clear
2:35 PM 71.6 °F - 51.8 °F 50% 30.23 in 10.0 mi ESE 4.6 mph - N/A   Clear
2:55 PM 71.6 °F - 51.8 °F 50% 30.22 in 10.0 mi SSE 3.5 mph - N/A   Clear
3:15 PM 71.6 °F - 51.8 °F 50% 30.22 in 10.0 mi South 3.5 mph - N/A   Clear
3:35 PM 71.6 °F - 51.8 °F 50% 30.22 in 10.0 mi Calm Calm - N/A   Clear
3:55 PM 69.8 °F - 53.6 °F 56% 30.22 in 10.0 mi West 9.2 mph - N/A   Clear
4:15 PM 68.0 °F - 53.6 °F 60% 30.23 in 10.0 mi West 6.9 mph - N/A   Clear
4:35 PM 66.2 °F - 51.8 °F 60% 30.22 in 10.0 mi West 6.9 mph - N/A   Clear
4:55 PM 64.4 °F - 51.8 °F 64% 30.23 in 10.0 mi West 4.6 mph - N/A   Clear
5:35 PM 60.8 °F - 51.8 °F 72% 30.23 in 10.0 mi West 3.5 mph - N/A   Clear
5:55 PM 60.8 °F - 51.8 °F 72% 30.23 in 10.0 mi Calm Calm - N/A   Clear
6:15 PM 59.0 °F - 51.8 °F 77% 30.24 in 10.0 mi Calm Calm - N/A   Clear
6:35 PM 57.2 °F - 51.8 °F 82% 30.24 in 10.0 mi Calm Calm - N/A   Clear
6:55 PM 59.0 °F - 51.8 °F 77% 30.24 in 10.0 mi Calm Calm - N/A   Clear
7:15 PM 57.2 °F - 51.8 °F 82% 30.24 in 10.0 mi Calm Calm - N/A   Clear
7:35 PM 57.2 °F - 51.8 °F 82% 30.24 in 10.0 mi Calm Calm - N/A   Clear
7:55 PM 53.6 °F - 51.8 °F 94% 30.24 in 10.0 mi Calm Calm - N/A   Clear
8:15 PM 53.6 °F - 51.8 °F 94% 30.24 in 10.0 mi Calm Calm - N/A   Clear
8:35 PM 53.6 °F - 50.0 °F 88% 30.23 in 10.0 mi Calm Calm - N/A   Clear
8:55 PM 51.8 °F - 50.0 °F 94% 30.23 in 10.0 mi Calm Calm - N/A   Clear
9:15 PM 51.8 °F - 50.0 °F 94% 30.23 in 10.0 mi Calm Calm - N/A   Clear
9:35 PM 50.0 °F - 50.0 °F 100% 30.23 in 10.0 mi Calm Calm - N/A   Clear
10:15 PM 50.0 °F - 48.2 °F 94% 30.23 in 10.0 mi Calm Calm - N/A   Scattered Clouds
10:35 PM 48.2 °F - 48.2 °F 100% 30.24 in 10.0 mi Calm Calm - N/A   Scattered Clouds
10:55 PM 48.2 °F - 48.2 °F 100% 30.24 in 10.0 mi Calm Calm - N/A   Mostly Cloudy
11:15 PM 50.0 °F - 48.2 °F 94% 30.24 in 10.0 mi Calm Calm - N/A   Scattered Clouds
11:35 PM 48.2 °F - 46.4 °F 93% 30.24 in 10.0 mi Calm Calm - N/A   Clear
11:55 PM 48.2 °F - 48.2 °F 100% 30.25 in 7.0 mi Calm Calm - N/A   Clear